DW5174 Weather Reports


Display with metric or nautical units.
time (UTC)temp
F
wind
direction
speed
MPH
gust
MPH
rain 1hr
in
rain 24hr
in
rain mn
in
humidity
%
barometer
mb
20180722110205 74 191 0.0 8.0 0.00 0.00 0.00 81 1015.8
20180722105705 73 281 0.0 10.0 0.00 0.00 0.00 81 1015.8
20180722105205 73 265 6.0 10.0 0.00 0.00 0.00 81 1015.8
20180722104705 73 343 0.0 10.0 0.00 0.00 0.00 82 1015.9
20180722104204 73 285 6.0 11.0 0.00 0.00 0.00 81 1015.9
20180722103704 73 288 0.0 11.0 0.00 0.00 0.00 80 1015.9
20180722103205 73 288 1.0 11.0 0.00 0.00 0.00 81 1015.9
20180722102705 73 282 6.0 9.0 0.00 0.00 0.00 81 1015.9
20180722102205 73 274 5.0 9.0 0.00 0.00 0.00 83 1016.0
20180722101705 72 285 1.0 0.0 0.00 0.00 0.00 83 1016.0
20180722101205 72 267 0.0 0.0 0.00 0.00 0.00 86 1016.0
20180722100705 71 267 0.0 0.0 0.00 0.00 0.00 86 1016.1
20180722100205 71 267 0.0 0.0 0.00 0.00 0.00 86 1016.1
20180722095705 71 267 0.0 3.0 0.00 0.00 0.00 86 1016.0
20180722095205 71 267 0.0 3.0 0.00 0.00 0.00 86 1016.1
20180722094705 71 267 0.0 3.0 0.00 0.00 0.00 86 1016.1
20180722094205 70 267 0.0 0.0 0.00 0.00 0.00 86 1016.1
20180722093705 70 267 0.0 0.0 0.00 0.00 0.00 86 1016.1
20180722093205 70 267 0.0 0.0 0.00 0.00 0.00 86 1016.2
20180722092704 70 267 0.0 0.0 0.00 0.01 0.00 87 1016.1
20180722092207 70 267 0.0 0.0 0.00 0.01 0.00 88 1016.2
20180722091705 69 267 0.0 0.0 0.00 0.01 0.00 88 1016.2
20180722091205 69 267 0.0 0.0 0.00 0.01 0.00 89 1016.2
20180722090705 69 267 0.0 0.0 0.00 0.01 0.00 90 1016.2
20180722090205 68 267 0.0 0.0 0.00 0.01 0.00 88 1016.2
20180722085705 68 267 0.0 0.0 0.00 0.01 0.00 89 1016.2
20180722085205 68 267 0.0 0.0 0.00 0.01 0.00 90 1016.2
20180722084705 68 267 0.0 0.0 0.00 0.01 0.00 89 1016.3
20180722084204 68 267 0.0 0.0 0.00 0.01 0.00 90 1016.3
20180722083704 68 267 0.0 0.0 0.00 0.01 0.00 91 1016.2
20180722083205 68 267 0.0 0.0 0.00 0.01 0.00 90 1016.3
20180722082705 68 267 0.0 0.0 0.00 0.01 0.00 89 1016.3
20180722082206 67 267 0.0 0.0 0.00 0.01 0.00 91 1016.2
20180722081704 67 267 0.0 0.0 0.00 0.01 0.00 91 1016.2
20180722081205 67 267 0.0 0.0 0.00 0.01 0.00 92 1016.3
20180722080704 67 267 0.0 0.0 0.00 0.01 0.00 91 1016.3
20180722080205 67 267 0.0 0.0 0.00 0.01 0.00 91 1016.3
20180722075706 67 267 0.0 0.0 0.00 0.01 0.00 90 1016.3
20180722075205 67 267 0.0 0.0 0.00 0.01 0.00 90 1016.3
20180722074705 67 267 0.0 0.0 0.00 0.01 0.00 91 1016.3
20180722074205 67 267 0.0 0.0 0.00 0.01 0.00 92 1016.4
20180722073705 67 267 0.0 0.0 0.00 0.01 0.00 92 1016.3
20180722073205 66 267 0.0 0.0 0.00 0.01 0.00 93 1016.3
20180722072705 66 267 0.0 0.0 0.00 0.01 0.00 93 1016.4
20180722072205 66 267 0.0 0.0 0.00 0.01 0.00 93 1016.4
20180722071705 65 267 0.0 0.0 0.00 0.01 0.00 92 1016.4
20180722071205 65 267 0.0 0.0 0.00 0.01 0.00 92 1016.4
20180722070705 65 267 0.0 0.0 0.00 0.01 0.00 93 1016.4
20180722070205 65 267 0.0 0.0 0.00 0.01 0.00 93 1016.3
20180722065705 65 267 0.0 0.0 0.00 0.01 0.00 94 1016.3
20180722065205 65 267 0.0 0.0 0.00 0.01 0.00 93 1016.3
20180722064705 65 267 0.0 0.0 0.00 0.01 0.00 93 1016.3
20180722064205 65 267 0.0 0.0 0.00 0.01 0.00 94 1016.2
20180722063704 64 267 0.0 0.0 0.00 0.01 0.00 94 1016.2
20180722063205 64 267 0.0 0.0 0.00 0.01 0.00 94 1016.2
20180722062705 64 267 0.0 0.0 0.00 0.01 0.00 94 1016.2
20180722062206 64 267 0.0 0.0 0.00 0.01 0.00 94 1016.2
20180722061705 64 267 0.0 0.0 0.00 0.01 0.00 94 1016.1
20180722061205 64 267 0.0 0.0 0.00 0.01 0.00 95 1016.1
20180722060705 64 267 0.0 0.0 0.00 0.01 0.00 94 1016.1
20180722060205 64 267 0.0 0.0 0.00 0.01 0.00 94 1016.0
20180722055705 63 267 0.0 0.0 0.00 0.01 0.00 94 1016.0
20180722055205 63 267 0.0 0.0 0.00 0.01 0.00 94 1016.1
20180722054706 63 267 0.0 0.0 0.00 0.01 0.00 95 1016.0
20180722054205 63 267 0.0 0.0 0.00 0.01 0.00 95 1016.0
20180722053705 63 267 0.0 0.0 0.00 0.01 0.00 95 1015.9
20180722053205 63 267 0.0 0.0 0.00 0.01 0.00 95 1015.9
20180722052705 63 267 0.0 0.0 0.00 0.01 0.00 94 1015.9
20180722052206 63 267 0.0 0.0 0.00 0.01 0.00 95 1015.9
20180722051705 63 267 0.0 0.0 0.00 0.01 0.00 95 1016.0
20180722051206 63 267 0.0 0.0 0.00 0.01 0.00 95 1015.9
20180722050705 62 267 0.0 0.0 0.00 0.01 0.00 95 1016.0
20180722050205 62 267 0.0 0.0 0.00 0.01 0.00 94 1016.0
20180722045705 62 267 0.0 0.0 0.00 0.01 0.00 95 1016.0
20180722045205 62 267 0.0 0.0 0.00 0.01 0.00 94 1016.1
20180722044705 62 267 0.0 0.0 0.00 0.01 0.00 94 1016.0
20180722044205 62 267 0.0 0.0 0.00 0.01 0.00 94 1016.0
20180722043705 62 267 0.0 0.0 0.00 0.01 0.00 94 1016.0
20180722043205 62 267 0.0 0.0 0.00 0.01 0.00 94 1016.0
20180722042704 62 267 0.0 0.0 0.00 0.01 0.00 94 1016.0
20180722042205 62 267 0.0 0.0 0.00 0.01 0.00 94 1016.0
20180722041704 62 267 0.0 0.0 0.00 0.01 0.00 95 1016.0
20180722041205 62 267 0.0 6.0 0.00 0.01 0.00 95 1015.9
20180722040705 62 267 0.0 6.0 0.00 0.01 0.00 94 1015.9
20180722040205 62 267 0.0 6.0 0.00 0.01 0.00 94 1016.0
20180722035707 62 267 0.0 6.0 0.00 0.01 0.00 94 1016.0
20180722035205 62 267 0.0 0.0 0.00 0.01 0.00 95 1016.1
20180722034705 62 267 2.0 0.0 0.00 0.01 0.00 94 1016.1
20180722034205 62 267 0.0 0.0 0.00 0.01 0.00 94 1016.1
20180722033705 62 267 0.0 0.0 0.00 0.01 0.00 94 1016.1
20180722033205 62 267 0.0 0.0 0.00 0.01 0.00 94 1016.1
20180722032705 62 267 0.0 0.0 0.00 0.01 0.00 94 1016.1
20180722032205 62 267 0.0 0.0 0.00 0.01 0.00 94 1016.1
20180722031704 62 267 0.0 0.0 0.00 0.01 0.00 94 1016.1
20180722031205 62 267 0.0 4.0 0.00 0.01 0.00 94 1016.1
20180722030705 62 267 0.0 4.0 0.00 0.01 0.00 94 1016.1
20180722030205 62 267 0.0 4.0 0.00 0.01 0.00 94 1016.1
20180722025705 62 285 0.0 0.0 0.00 0.01 0.00 94 1016.0
20180722025205 62 285 0.0 0.0 0.00 0.01 0.00 94 1016.0
20180722024705 62 285 0.0 0.0 0.00 0.01 0.00 94 1016.0
20180722024205 62 285 0.0 0.0 0.00 0.01 0.00 94 1016.0
20180722023704 62 285 0.0 0.0 0.00 0.01 0.00 94 1016.1
20180722023205 62 285 0.0 0.0 0.00 0.01 0.00 94 1016.1
20180722022704 62 285 0.0 0.0 0.00 0.01 0.00 93 1016.1
20180722022205 62 285 0.0 0.0 0.00 0.01 0.00 93 1016.0
20180722021705 62 285 0.0 0.0 0.00 0.01 0.00 92 1016.1
20180722021205 62 285 0.0 0.0 0.00 0.01 0.00 92 1016.1
20180722020705 62 285 0.0 0.0 0.00 0.01 0.00 92 1016.1
20180722020205 62 285 0.0 0.0 0.00 0.01 0.00 92 1016.1
20180722015704 62 285 0.0 0.0 0.00 0.01 0.00 92 1016.1
20180722015205 62 285 0.0 0.0 0.00 0.01 0.00 92 1016.2
20180722014704 62 285 0.0 0.0 0.00 0.01 0.00 92 1016.1
20180722014205 62 285 0.0 0.0 0.00 0.01 0.00 92 1016.2
20180722013705 62 285 0.0 0.0 0.00 0.01 0.00 92 1016.2
20180722013205 62 285 0.0 0.0 0.00 0.01 0.00 92 1016.2
20180722012704 62 285 0.0 0.0 0.00 0.01 0.00 92 1016.3
20180722012205 62 285 0.0 0.0 0.00 0.01 0.00 91 1016.4
20180722011705 62 285 0.0 4.0 0.00 0.01 0.00 91 1016.3
20180722011205 62 285 0.0 10.0 0.00 0.01 0.00 90 1016.4
20180722010704 62 285 0.0 10.0 0.00 0.01 0.00 90 1016.4
20180722010205 63 285 0.0 10.0 0.00 0.01 0.00 90 1016.4
20180722005705 63 279 0.0 10.0 0.00 0.01 0.00 90 1016.5
20180722005205 63 279 0.0 10.0 0.00 0.01 0.00 90 1016.5
20180722004705 63 307 0.0 7.0 0.00 0.01 0.00 89 1016.6
20180722004204 63 322 0.0 7.0 0.00 0.01 0.00 88 1016.6
20180722003704 63 271 1.0 10.0 0.00 0.01 0.00 88 1016.5
20180722003205 63 270 2.0 10.0 0.00 0.01 0.00 88 1016.6
20180722002705 63 286 6.0 7.0 0.00 0.01 0.00 86 1016.6
20180722002205 63 237 0.0 7.0 0.00 0.01 0.00 86 1016.6
20180722001705 64 284 0.0 9.0 0.00 0.01 0.00 86 1016.5
20180722001206 64 284 0.0 10.0 0.00 0.01 0.00 85 1016.6
20180722000704 64 262 4.0 10.0 0.00 0.01 0.00 84 1016.5
20180722000205 64 261 6.0 10.0 0.00 0.01 0.00 84 1016.5
20180721235705 64 289 7.0 9.0 0.00 0.01 0.00 84 1016.5
20180721235205 64 258 7.0 9.0 0.00 0.01 0.00 83 1016.5
20180721234705 64 270 5.0 9.0 0.00 0.01 0.00 83 1016.6
20180721234205 64 241 8.0 8.0 0.00 0.01 0.00 82 1016.6
20180721233704 64 257 4.0 10.0 0.00 0.01 0.00 81 1016.5
20180721233205 64 278 5.0 10.0 0.00 0.01 0.00 81 1016.6
20180721232705 64 254 6.0 9.0 0.00 0.01 0.00 81 1016.5
20180721232206 64 274 6.0 11.0 0.00 0.01 0.00 81 1016.5
20180721231705 65 289 4.0 12.0 0.00 0.01 0.00 80 1016.5
20180721231206 65 257 4.0 12.0 0.00 0.01 0.00 79 1016.5
20180721230705 65 258 6.0 12.0 0.00 0.01 0.00 79 1016.4
20180721230205 65 284 8.0 10.0 0.00 0.01 0.01 78 1016.4
20180721225704 65 291 5.0 9.0 0.00 0.01 0.01 78 1016.3
20180721225205 65 271 5.0 9.0 0.00 0.01 0.01 77 1016.3
20180721224704 65 267 6.0 11.0 0.00 0.01 0.01 77 1016.2
20180721224205 66 284 6.0 11.0 0.00 0.01 0.01 77 1016.3
20180721223705 66 264 8.0 8.0 0.00 0.01 0.01 77 1016.3
20180721223205 66 254 1.0 10.0 0.00 0.01 0.01 77 1016.3
20180721222705 66 251 1.0 11.0 0.00 0.01 0.01 77 1016.3
20180721222206 66 278 7.0 11.0 0.00 0.01 0.01 76 1016.3
20180721221704 66 289 7.0 11.0 0.00 0.01 0.01 77 1016.2
20180721221205 66 305 6.0 11.0 0.00 0.01 0.01 76 1016.2
20180721220705 67 300 7.0 8.0 0.00 0.01 0.01 76 1016.3
20180721220205 67 272 5.0 8.0 0.00 0.01 0.01 76 1016.3
20180721215706 67 298 6.0 10.0 0.00 0.01 0.01 75 1016.3
20180721215205 67 292 6.0 10.0 0.00 0.01 0.01 75 1016.3
20180721214705 67 234 5.0 10.0 0.00 0.01 0.01 75 1016.2
20180721214205 67 296 6.0 10.0 0.00 0.01 0.01 75 1016.3
20180721213705 67 288 5.0 9.0 0.00 0.01 0.01 75 1016.3
20180721213205 67 296 7.0 8.0 0.00 0.01 0.01 75 1016.3
20180721212705 67 274 5.0 6.0 0.00 0.01 0.01 75 1016.2
20180721212205 68 255 0.0 6.0 0.00 0.01 0.01 75 1016.1
20180721211705 68 255 2.0 9.0 0.00 0.01 0.01 75 1016.1
20180721211205 68 291 4.0 9.0 0.00 0.01 0.01 74 1016.0
20180721210705 68 302 2.0 9.0 0.00 0.01 0.01 74 1016.0
20180721210205 68 274 4.0 10.0 0.00 0.01 0.01 73 1016.0
20180721205705 69 298 5.0 11.0 0.00 0.01 0.01 73 1015.9
20180721205206 69 246 2.0 11.0 0.00 0.01 0.01 73 1015.9
20180721204705 69 300 8.0 8.0 0.00 0.01 0.01 73 1015.8
20180721204205 69 239 0.0 9.0 0.00 0.01 0.01 73 1015.6
20180721203704 69 257 6.0 9.0 0.00 0.01 0.01 73 1015.6
20180721203205 69 220 7.0 9.0 0.00 0.01 0.01 73 1015.6
20180721202705 70 239 2.0 11.0 0.00 0.01 0.01 73 1015.6
20180721202206 70 298 6.0 11.0 0.00 0.01 0.01 73 1015.5
20180721201705 70 292 5.0 11.0 0.00 0.01 0.01 73 1015.5
20180721201205 70 282 3.0 11.0 0.00 0.01 0.01 73 1015.5
20180721200705 70 286 7.0 10.0 0.00 0.01 0.01 72 1015.4
20180721200205 70 282 7.0 10.0 0.00 0.01 0.01 71 1015.4
20180721195704 70 274 0.0 9.0 0.00 0.01 0.01 73 1015.4
20180721195205 70 277 2.0 9.0 0.00 0.01 0.01 72 1015.3
20180721194704 71 315 7.0 8.0 0.00 0.01 0.01 71 1015.3
20180721194205 71 302 4.0 8.0 0.00 0.01 0.01 71 1015.2
20180721193704 71 274 0.0 0.0 0.00 0.01 0.01 71 1015.1
20180721193205 71 274 0.0 0.0 0.00 0.01 0.01 75 1015.2
20180721192704 71 274 0.0 0.0 0.00 0.01 0.01 71 1015.1
20180721192205 71 274 0.0 0.0 0.00 0.01 0.01 72 1015.2
20180721191705 71 274 0.0 0.0 0.00 0.01 0.01 71 1015.1
20180721191205 71 274 0.0 0.0 0.00 0.01 0.01 71 1015.1
20180721190705 71 274 0.0 0.0 0.00 0.01 0.01 69 1015.0
20180721190205 71 274 0.0 0.0 0.00 0.01 0.01 69 1014.9
20180721185703 71 274 0.0 0.0 0.00 0.01 0.01 69 1014.9
20180721185205 71 274 0.0 6.0 0.00 0.01 0.01 71 1014.9
20180721184704 71 274 0.0 9.0 0.00 0.01 0.01 67 1014.8
20180721184205 71 274 0.0 9.0 0.00 0.01 0.01 68 1014.9
20180721183705 71 270 0.0 9.0 0.00 0.01 0.01 67 1014.9
20180721183205 71 282 5.0 9.0 0.00 0.01 0.01 67 1015.0
20180721182705 71 313 4.0 9.0 0.00 0.01 0.01 67 1014.9
20180721182205 71 234 2.0 9.0 0.00 0.01 0.01 67 1014.8
20180721181705 71 253 4.0 9.0 0.00 0.01 0.01 67 1014.8
20180721181205 71 305 3.0 12.0 0.00 0.01 0.01 67 1014.8
20180721180705 71 279 6.0 12.0 0.00 0.01 0.01 66 1014.8
20180721180205 71 298 6.0 12.0 0.00 0.01 0.01 66 1014.8
20180721175703 72 274 4.0 8.0 0.00 0.01 0.01 67 1014.8
20180721175205 72 12 4.0 9.0 0.00 0.01 0.01 68 1014.8
20180721174704 72 254 0.0 9.0 0.00 0.01 0.01 67 1014.8
20180721174204 72 315 0.0 11.0 0.00 0.02 0.01 66 1014.8
20180721173705 72 234 1.0 11.0 0.00 0.02 0.01 67 1014.8
20180721173204 72 303 4.0 11.0 0.00 0.02 0.01 67 1014.8
20180721172705 72 305 7.0 10.0 0.00 0.02 0.01 67 1014.8
20180721172206 72 4 2.0 10.0 0.00 0.02 0.01 67 1014.8
20180721171705 73 355 3.0 9.0 0.00 0.02 0.01 67 1014.7
20180721171205 73 323 5.0 9.0 0.00 0.02 0.01 67 1014.7
20180721170205 73 265 2.0 11.0 0.00 0.02 0.01 65 1014.7
20180721165705 73 284 3.0 11.0 0.00 0.02 0.01 64 1014.8
20180721165206 73 270 2.0 12.0 0.00 0.02 0.01 62 1014.8
20180721164705 73 293 6.0 12.0 0.00 0.02 0.01 63 1014.8
20180721164205 73 267 5.0 12.0 0.00 0.02 0.01 64 1014.7
20180721163705 73 299 1.0 11.0 0.00 0.02 0.01 64 1014.8
20180721163205 74 251 2.0 11.0 0.00 0.02 0.01 64 1014.8
20180721162704 74 29 0.0 10.0 0.00 0.02 0.01 65 1014.8
20180721162206 74 265 2.0 9.0 0.00 0.02 0.01 63 1014.8
20180721161704 74 326 1.0 6.0 0.00 0.02 0.01 63 1014.8
20180721161205 74 22 0.0 4.0 0.00 0.02 0.01 66 1014.8
20180721160704 73 22 0.0 5.0 0.00 0.02 0.01 67 1014.9
20180721160205 73 300 0.0 6.0 0.00 0.02 0.01 67 1015.1
20180721155705 73 300 3.0 7.0 0.00 0.02 0.01 66 1015.1
20180721155205 72 338 3.0 9.0 0.00 0.02 0.01 66 1015.1
20180721154704 72 282 0.0 9.0 0.00 0.02 0.01 67 1015.2
20180721154205 72 240 3.0 11.0 0.00 0.03 0.01 68 1015.3
20180721153704 72 313 5.0 11.0 0.00 0.03 0.01 72 1015.3
20180721153205 71 289 2.0 11.0 0.00 0.03 0.01 70 1015.4
20180721152704 71 14 4.0 8.0 0.00 0.03 0.01 70 1015.4
20180721152205 71 329 2.0 8.0 0.00 0.03 0.01 70 1015.4
20180721151705 71 32 1.0 8.0 0.00 0.04 0.01 71 1015.5
20180721151205 70 350 2.0 7.0 0.00 0.04 0.01 70 1015.6
20180721150705 70 350 5.0 9.0 0.00 0.04 0.01 71 1015.6
20180721150206 70 331 0.0 9.0 0.00 0.04 0.01 71 1015.7
20180721145705 69 309 6.0 9.0 0.00 0.04 0.01 71 1015.7
20180721145205 69 344 7.0 9.0 0.00 0.04 0.01 72 1015.8
20180721144704 69 272 0.0 11.0 0.00 0.04 0.01 74 1015.7
20180721144205 68 272 0.0 13.0 0.00 0.04 0.01 73 1015.8
20180721143705 68 267 4.0 13.0 0.00 0.04 0.01 75 1015.9
20180721143206 68 285 10.0 9.0 0.00 0.04 0.01 73 1015.8
20180721142705 68 281 6.0 11.0 0.00 0.04 0.01 73 1015.8
20180721142205 68 18 5.0 11.0 0.00 0.04 0.01 75 1015.8
20180721141704 68 327 7.0 10.0 0.00 0.04 0.01 74 1016.0
20180721141205 69 284 0.0 10.0 0.00 0.04 0.01 75 1016.1
20180721140704 68 343 1.0 10.0 0.00 0.04 0.01 78 1016.1
20180721140205 67 267 1.0 10.0 0.00 0.04 0.01 76 1016.1
20180721135705 67 327 6.0 10.0 0.00 0.04 0.01 77 1016.1
20180721135205 67 274 3.0 13.0 0.00 0.04 0.01 77 1016.0
20180721134704 67 313 5.0 13.0 0.00 0.04 0.01 77 1015.9
20180721134205 67 21 2.0 13.0 0.00 0.04 0.01 77 1015.9
20180721133705 67 279 6.0 11.0 0.00 0.04 0.01 75 1016.0
20180721133205 67 351 8.0 11.0 0.00 0.05 0.01 78 1016.1
20180721132705 66 258 1.0 11.0 0.00 0.05 0.01 77 1016.1
20180721132206 66 239 6.0 11.0 0.00 0.05 0.01 79 1016.1
20180721131705 66 341 6.0 11.0 0.00 0.05 0.01 78 1016.1
20180721131205 65 299 0.0 11.0 0.00 0.05 0.01 79 1016.0
20180721130705 65 307 7.0 11.0 0.00 0.05 0.01 77 1016.0
20180721130205 65 317 3.0 11.0 0.00 0.05 0.01 77 1016.1
20180721125705 66 296 5.0 11.0 0.00 0.05 0.01 77 1016.0
20180721125205 66 219 8.0 11.0 0.00 0.05 0.01 78 1016.0
20180721124704 66 319 2.0 10.0 0.00 0.05 0.01 78 1015.9
20180721124205 65 278 5.0 11.0 0.00 0.05 0.01 77 1015.9
20180721123705 66 330 6.0 11.0 0.00 0.05 0.01 79 1016.0
20180721123205 65 254 6.0 14.0 0.00 0.05 0.01 79 1016.0
20180721122705 65 355 1.0 14.0 0.00 0.05 0.01 79 1016.1
20180721122205 65 270 3.0 14.0 0.00 0.05 0.01 79 1016.2
20180721121705 65 331 7.0 12.0 0.00 0.05 0.01 78 1016.1
20180721121205 65 341 2.0 11.0 0.00 0.05 0.01 79 1016.2
20180721120705 65 284 3.0 11.0 0.00 0.05 0.01 81 1016.2
20180721120206 65 196 5.0 11.0 0.00 0.05 0.01 79 1016.2
20180721115704 64 261 2.0 7.0 0.00 0.05 0.01 82 1016.3
20180721115206 64 295 2.0 8.0 0.00 0.05 0.01 81 1016.2
20180721114705 64 265 0.0 8.0 0.00 0.05 0.01 81 1016.3
20180721114205 64 258 4.0 8.0 0.00 0.05 0.01 80 1016.2
20180721113705 64 299 2.0 10.0 0.00 0.05 0.01 81 1016.3
20180721113205 64 295 0.0 10.0 0.00 0.05 0.01 81 1016.3
20180721112705 64 271 0.0 9.0 0.00 0.05 0.01 82 1016.3
20180721112206 64 343 2.0 8.0 0.00 0.05 0.01 82 1016.3
20180721111705 64 278 0.0 9.0 0.00 0.05 0.01 80 1016.3
20180721111206 64 354 1.0 9.0 0.00 0.05 0.01 81 1016.3
20180721110705 64 299 0.0 9.0 0.00 0.05 0.01 82 1016.3